Weather in Magnetity

Russia / Murmansk Oblast     68°41′09″N   33°07′38″E
temp.,
°C
wind,
m/s
gust,
m/s
humid.,
%
clouds,
%
prec.,
mm/h
press.,
hPa
HPBL,
m
22 october, fri
fri2200:00−2ene5138891 0.0 987697
03:00−1ene81584100 0.8 9881211
06:00−1ene7147178 0.1 9891036
09:00−2ne613689 0.1 989865
12:00−1ne6116617 0.0 9911227
15:00−1ne6116799 0.0 9921047
18:00−2ne5126897 0.1 994718
21:00−2nne4116899 0.1 996610
23 october, sat
sat2300:00−2nne3107298 0.1 997428
03:00−2n397399 0.3 999395
06:00−2nnw2878100 0.3 1001374
09:00−3nw2886100 0.5 1004471
12:00−2wnw2778100 0.2 1006449
15:00−2nw3986100 0.2 1008426
18:00−3wnw3983100 0.0 1009344
21:00−3wsw31082100 0.0 1010363
24 october, sun
sun2400:00−3w4118499 0.0 1010449
03:00−4w4108879 0.0 1011434
06:00−4w3109121 0.0 1011321
09:00−4w310915 0.0 1011362
12:00−2w5138212 0.0 1012734
15:00−2wnw5108829 0.6 1013794
18:00−4w25885 0.3 1015129
21:00−5wnw1196100 0.3 101717
25 october, mon
mon2500:00−5wsw119695 0.1 101818
03:00−7wsw119841 0.1 101910
06:00−7ssw1198100 0.0 101914
09:00−7sse119879 0.0 101923
12:00−4se1386100 0.0 101899
15:00−4ese1186100 0.0 101730
18:00−5e1187100 0.0 101523
21:00−5ese1184100 0.0 101425
26 october, tue
tue2600:00−5e1183100 0.0 101333
03:00−4e1281100 0.0 101277
06:00−3ese31073100 0.0 1011406
09:00−4ese51288100 0.2 1011570
12:00−3ese61388100 0.3 1010696
15:00−2ese61269100 0.4 1009793
18:00−3ese61276100 0.1 1009842
21:00−3ese61180100 0.1 1008939